Regional Weather Roundup
Issued by NWS

Home | Current Version | Previous Version | Graphics & Text | Print | Product List | Glossary Off
Versions: 1 2 3 4 5 6 7 8 9 10 11 12 13 14 15 16 17 18 19 20 21 22 23 24 25 26 27 28 29 30 31 32 33 34 35 36 37 38 39 40 41 42 43 44 45 46 47 48 49 50

000
ASUS43 KMKX 062110
RWRWI

WISCONSIN REGIONAL WEATHER ROUNDUP
NATIONAL WEATHER SERVICE MILWAUKEE/SULLIVAN WI
300 PM CST FRI MAR 06 2015

NOTE: "FAIR" INDICATES FEW OR NO CLOUDS BELOW 12,000 FEET WITH NO
SIGNIFICANT WEATHER AND/OR OBSTRUCTIONS TO VISIBILITY.

WIZ001-002-006>008-014>016-023>028-062200-
NORTHWEST WISCONSIN

CITY           SKY/WX    TMP DP  RH WIND       PRES   REMARKS
SUPERIOR ARPT  SUNNY     34  14  44 W10G18    29.97S WCI  26
ASHLAND        SUNNY     33  13  43 W13G21    29.96S WCI  24
HAYWARD        SUNNY     32  11  41 VRB7      29.96F WCI  26
SIREN          SUNNY     33  14  45 W9        30.00S WCI  25
CUMBERLAND     SUNNY     30  12  47 W12       29.99S WCI  21
RICE LAKE      SUNNY     30  13  49 W10       30.02S WCI  21
CHETEK         SUNNY     31  14  49 W6        30.01S WCI  25
LADYSMITH      SUNNY     30  13  49 W8        30.00R WCI  22
EAU CLAIRE     SUNNY     31  15  52 W14       30.02S WCI  21
MENOMONIE      SUNNY     34  16  47 W12       30.03S WCI  25
NEW RICHMOND   SUNNY     34  16  47 W12       30.02S WCI  26
OSCEOLA        SUNNY     35  16  47 NW9       30.05S WCI  27
$$

WIZ003>005-009-010-017-018-062200-
NORTH CENTRAL WISCONSIN

CITY           SKY/WX    TMP DP  RH WIND       PRES   REMARKS
MANITOWISH WTR SUNNY     28   9  45 W12G17    29.90S WCI  17
ARBOR VITAE    SUNNY     29  11  46 W12G17    29.91S WCI  20
WOODRUFF       SUNNY     29  11  46 W12G17    29.91S WCI  20
RHINELANDER    SUNNY     27  10  49 SW13G20   29.92S WCI  16
EAGLE RIVER    SUNNY     28   8  43 SW15      29.89S WCI  16
LAND O LAKES   SUNNY     30   7  38 SW9G17    29.89S WCI  22
PHILLIPS       SUNNY     26  10  50 W8        29.94R WCI  18
TOMAHAWK       SUNNY     29  10  44 W9        29.94S WCI  21
MEDFORD        SUNNY     27  11  53 SW12G17   29.97R WCI  16
MERRILL        SUNNY     28  13  52 W15       29.96S WCI  17
$$

WIZ029-030-035-036-043>047-062200-
CENTRAL WISCONSIN

CITY           SKY/WX    TMP DP  RH WIND       PRES   REMARKS
WAUSAU         SUNNY     28  11  48 SW10G20   29.95F WCI  19
MOSINEE        SUNNY     28  12  50 SW10      29.98F WCI  19
MARSHFIELD     SUNNY     31  13  47 SW10      29.98F WCI  22
STEVENS POINT  SUNNY     29  11  47 SW10G17   29.99F WCI  20
WAUPACA        CLOUDY    34  12  40 S12       30.01F WCI  25
WAUTOMA        MOSUNNY   32  14  47 SW10G17   30.04F WCI  24
WISC RAPIDS    SUNNY     31  12  45 SW14      30.01F WCI  21
CAMP DOUGLAS   SUNNY     34  18  51 SW15      30.02F WCI  24
$$

WIZ011>013-019>022-031-037>040-048>050-062200-
NORTHEAST WISCONSIN

CITY           SKY/WX    TMP DP  RH WIND       PRES   REMARKS
ANTIGO         SUNNY     26  12  56 SW14      29.94S WCI  14
SHAWANO        MOSUNNY   32  13  44 SW10G20   30.00F WCI  24
OCONTO         MOSUNNY   29  12  48 SW14G20   30.01F WCI  19
STURGEON BAY   CLOUDY    27  12  54 SW18G25   30.03F WCI  13
GREEN BAY      PTSUNNY   28  13  53 SW17G24   30.02F WCI  16
MANITOWOC      CLOUDY    29  14  53 SW17      30.05F WCI  17
APPLETON       PTSUNNY   30  12  47 SW18G24   30.03F WCI  18
CLINTONVILLE   MOSUNNY   32  14  47 SW15      30.01S WCI  22
OSHKOSH        CLOUDY    29  15  56 SW16G25   30.04F WCI  17
$$

WIZ032>034-041-042-053>061-062200-
SOUTHWEST WISCONSIN

CITY           SKY/WX    TMP DP  RH WIND       PRES   REMARKS
LA CROSSE      SUNNY     34  19  54 SW14      30.06S WCI  25
SPARTA         SUNNY     34  15  47 SW10G17   30.04F WCI  26
VIROQUA        SUNNY     31  17  58 SW16      30.05S WCI  19
BOSCOBEL       SUNNY     33  17  51 S12       30.11F WCI  24
PRAIRIE DU CHI SUNNY     32  17  54 SW8       30.12S WCI  25
PLATTEVILLE    SUNNY     29  19  65 S14       30.12F WCI  19
$$

WIZ056-057-062-063-064-067-068-062200-
SOUTH CENTRAL WISCONSIN

CITY           SKY/WX    TMP DP  RH WIND       PRES   REMARKS
REEDSBURG      MOSUNNY   30  16  55 SW14      30.06F WCI  20
BARABOO/DELLS  MOSUNNY   29  14  53 SW15      30.06F WCI  17
LONE ROCK      MOSUNNY   30  15  53 SW12      30.11F WCI  20
MINERAL POINT  SUNNY     30  18  59 S16       30.09F WCI  19
MADISON        PTSUNNY   28  13  53 SW13G22   30.10F WCI  17
MIDDLETON      PTSUNNY   31  13  46 SW15G23   30.10F WCI  20
WATERTOWN      CLOUDY    27  15  60 SW20G25   30.10F WCI  13
MONROE         SUNNY     28  19  69 S15       30.12F WCI  17
JANESVILLE     SUNNY     28  16  59 S18G26    30.15F WCI  16
$$

WIZ051-052-058>065-066-070>072-062200-
SOUTHEAST WISCONSIN

CITY           SKY/WX    TMP DP  RH WIND       PRES   REMARKS
MILWAUKEE      PTSUNNY   26  11  52 SW25G31   30.14F WCI  11
WAUKESHA       MOSUNNY   25  10  54 SW18G24   30.13F WCI  11
MILWAUKEE/TIMM PTSUNNY   27  10  50 SW20G25   30.13F WCI  13
RACINE         CLOUDY    28  12  51 SW18G29   30.16F WCI  15
BURLINGTON     SUNNY     25  13  60 SW18G28   30.15F WCI  12
KENOSHA        CLOUDY    27  13  55 SW22G35   30.16F WCI  13
FOND DU LAC    CLOUDY    27  12  53 SW22G29   30.06F WCI  13
SHEBOYGAN      CLOUDY    27  13  55 SW18      30.07F WCI  14
WEST BEND      CLOUDY    27  12  54 SW18G25   30.09F WCI  13
JUNEAU         PTSUNNY   26  13  59 S20G26    30.10F WCI  12
$$

LSZ147-162-062200-
LAKE SUPERIOR

STATION/POSITION TIME  TEMP    WIND        PRES    WAVE
                       AIR SEA DIR/SP/G            HT/PER
                 (UTC) (F)     (DEG/KT/KT) (MB)    (FT/S)
DEVILS ISLAND    2100   29     240/ 21/ 26 1014.3S
PORT WING        2040   31     240/ 10/ 19 1014.9F
SAXON HARBOR     2000   32     270/  7/ 14 1014.2
$$

LMZ867-665-643>646-062200-
LAKE MICHIGAN

STATION/POSITION TIME  TEMP    WIND        PRES    WAVE
                       AIR SEA DIR/SP/G            HT/PER
                 (UTC) (F)     (DEG/KT/KT) (MB)    (FT/S)
NORTHPORT PIER   2020   26     240/  7/ 17 1015.9F
SISTER BAY       1943   26     220/ 19/ 24   N/A
KEWAUNEE LAKESHO 2000   28     230/ 13/ 18 1017.0F
SHEBOYGAN LAKESH 2100   28     210/ 19/ 23 1019.7F
PORT WASHINGTON  2000   30     220/ 12     1020.3F
MILWAUKEE LAKESH 2000   27     230/ 24/ 30   N/A
KENOSHA   LAKESH 2100   28     220/ 17/ 26 1021.3F
$$

TC  - TEMPERATURE IN CELSIUS
VSB - VISIBILITY IN STATUTE MILES
WCI - WIND CHILL INDEX
HX  - HEAT INDEX




USA.gov is the U.S. government's official web portal to all federal, state and local government web resources and services.